Theta_e
335 333 331 329 325 324 324 322 321 319 318 317 315 314 312 309 307 307 306 306 305 304 303 303 304 305 306 305 305 304 304 304 304 302 302 303 303 302 302 302 301 301 301
330 328 326 325 326 324 321 319 318 316 314 312 311 309 307 307 307 306 305 304 303 302 302 303 304 305 304 303 303 303 302 302 302 302 302 302 302 302 302 302 302 301 301
323 322 321 321 320 318 317 316 314 312 310 309 307 307 308 307 306 305 304 302 301 301 302 303 304 304 303 303 303 302 302 302 302 301 301 302 302 303 302 302 302 302 301
322 321 320 319 318 316 313 311 309 308 307 307 307 307 307 305 304 303 303 301 300 300 302 302 303 303 303 302 303 303 303 302 301 301 302 302 302 302 302 302 302 301 301
321 319 316 313 311 310 309 308 307 307 306 306 306 306 305 304 303 303 302 300 299 299 300 300 300 301 303 303 302 302 301 301 301 301 301 301 301 302 302 302 302 302 301
310 307 307 308 308 307 306 306 305 305 304 304 304 304 303 303 302 301 300 299 298 298 298 298 298 300 300 301 301 300 301 301 301 300 301 301 301 301 301 301 301 301 302
308 307 307 306 305 304 304 303 302 302 302 302 302 302 302 302 301 299 298 297 297 297 296 296 297 298 299 299 300 301 301 300 299 299 300 300 300 300 300 300 300 300 300
304 304 304 304 303 302 301 301 301 301 301 301 301 300 301 299 298 297 296 295 295 295 295 296 296 297 298 297 299 299 299 299 298 297 297 297 298 298 299 299 299 299 298
302 302 301 301 301 300 300 300 300 300 299 299 299 299 299 296 295 294 294 293 294 294 295 295 295 296 296 297 297 297 298 297 297 296 296 297 297 298 299 299 298 298 299
300 300 300 300 299 299 299 299 298 297 297 296 296 295 294 293 292 292 291 291 291 292 293 294 295 294 296 296 296 296 296 296 296 296 296 296 296 297 298 299 299 299 299
299 299 299 299 298 297 296 296 295 295 294 294 293 292 292 291 291 291 291 292 291 291 292 293 295 295 295 295 295 295 295 295 295 295 295 296 295 295 295 296 298 299 300
297 297 297 297 296 295 295 294 293 293 292 291 292 292 291 291 290 290 293 293 292 292 293 294 294 294 294 294 295 295 294 295 295 295 294 294 294 294 294 295 297 299 300
295 295 295 295 295 294 294 293 292 292 291 290 290 290 291 290 290 290 292 293 294 293 293 293 293 293 293 294 294 294 293 293 294 294 293 293 293 293 294 295 298 300 300
295 295 295 295 294 294 293 293 292 291 290 290 290 290 290 290 290 290 290 290 290 291 291 291 291 291 291 292 292 292 292 292 293 292 292 292 291 292 293 295 296 299 300
294 294 294 294 293 293 293 292 292 291 290 290 290 290 290 290 290 290 290 290 290 290 290 290 290 290 290 290 290 291 291 292 292 291 290 290 290 291 292 293 295 298 300
294 293 293 293 293 292 292 292 291 291 290 289 289 290 290 289 289 290 290 290 290 290 290 290 290 289 289 289 289 289 290 290 290 289 289 289 289 290 291 292 294 298 300
293 293 292 292 292 292 291 291 290 290 289 289 289 289 288 288 289 289 290 290 290 290 289 290 290 290 289 288 288 288 288 288 287 287 288 288 288 289 290 291 293 296 301
293 293 292 292 291 291 290 290 290 290 289 288 287 287 288 288 289 289 289 289 288 289 290 289 289 289 289 287 286 286 286 286 286 286 286 287 288 289 290 292 293 295 299
293 293 293 291 291 290 290 289 289 288 287 287 286 287 287 288 288 288 288 287 287 288 289 288 287 288 287 285 285 285 284 284 285 285 285 286 287 288 290 292 295 298 298
294 294 293 292 291 290 290 289 288 287 287 286 286 286 286 287 286 286 286 286 286 287 286 286 285 285 285 284 283 283 283 283 284 284 284 285 287 288 291 293 298 302 303
294 292 292 292 290 289 289 288 287 286 286 285 285 285 285 285 285 285 285 285 285 285 285 284 284 283 283 282 282 282 282 282 283 283 284 285 287 289 292 296 301 307 306
292 291 290 289 289 288 288 287 286 286 285 285 285 285 285 284 284 284 284 283 283 283 283 283 283 282 282 281 281 281 281 282 282 283 284 285 287 290 293 297 304 306 306
291 290 289 288 288 287 287 286 285 285 284 284 284 284 284 283 283 283 283 283 282 282 282 282 281 281 281 281 281 281 281 281 282 283 284 286 288 290 292 296 302 304 303
290 290 289 288 287 286 286 285 285 284 284 284 283 283 283 282 282 282 282 282 282 282 282 281 281 281 281 280 280 281 281 282 283 285 286 286 288 291 293 296 301 303 302
289 289 288 287 286 285 285 284 284 283 283 283 283 282 282 281 281 281 281 281 281 281 281 281 281 281 280 280 280 281 282 284 286 287 287 287 288 290 292 295 299 304 303
289 288 287 286 285 284 284 284 283 283 282 282 282 282 281 281 281 281 281 281 281 281 281 281 281 281 280 280 280 280 282 284 286 288 288 288 288 289 290 292 295 299 302
Wind_Speed
28 27 31 33 33 32 29 25 21 17 12 7 6 7 9 11 11 11 11 14 17 18 16 12 9 10 11 15 17 16 16 13 8 21 24 27 28 29 27 24 22 23 23
29 34 34 35 34 32 26 21 17 14 10 7 8 9 8 9 10 12 15 16 18 17 14 11 10 9 15 16 15 14 15 15 15 17 24 24 27 28 29 26 22 20 21
32 33 36 37 35 28 22 17 13 10 8 7 8 8 8 9 10 13 14 14 16 14 11 10 10 10 13 15 13 14 16 20 21 18 24 24 25 25 28 25 22 22 21
36 36 33 29 26 22 18 14 11 9 9 10 9 8 8 8 9 10 13 14 17 12 10 9 10 11 12 11 14 16 19 20 21 19 20 22 21 23 18 20 20 21 24
36 34 31 28 24 20 15 12 10 10 11 10 6 7 6 5 5 9 12 14 17 11 10 11 11 9 9 10 13 16 20 23 18 17 19 19 20 16 16 18 18 21 24
32 29 28 27 22 18 15 12 10 10 9 8 6 6 3 4 6 8 12 13 14 13 13 15 14 7 9 9 16 22 20 19 20 18 20 17 19 18 19 16 16 15 5
33 29 25 21 19 16 14 11 11 12 10 8 8 6 4 4 6 8 11 13 15 14 16 18 16 10 9 16 22 22 21 19 15 19 21 22 24 24 23 24 18 16 18
26 22 20 21 17 14 13 14 12 11 11 11 10 7 5 6 6 11 13 15 16 16 16 15 13 11 9 20 24 22 23 24 20 21 21 25 26 28 26 25 25 23 23
24 21 17 17 18 15 16 15 12 11 10 8 8 8 7 6 10 15 19 19 19 19 16 12 11 12 14 18 22 23 24 25 28 24 23 22 22 23 21 22 17 12 8
20 19 18 17 17 17 12 13 12 11 13 11 11 9 8 10 13 18 21 20 20 20 18 14 12 13 15 18 19 20 19 27 33 33 27 24 22 23 19 18 20 14 11
20 18 18 17 19 18 16 13 10 10 9 10 9 9 10 13 15 19 18 18 17 19 17 17 17 16 20 18 16 17 22 26 29 26 26 25 24 21 21 20 17 19 14
19 21 23 19 18 17 17 17 15 15 16 16 14 13 15 17 21 20 16 18 16 14 15 16 19 19 19 18 18 20 23 24 22 23 23 23 23 24 24 22 18 16 17
19 20 20 17 16 15 16 15 16 15 15 15 18 16 15 19 21 21 16 16 16 17 17 18 17 19 20 20 22 23 23 22 22 22 23 22 24 26 26 22 16 14 11
18 18 18 18 18 16 14 14 16 14 16 16 15 14 13 17 20 22 23 24 22 20 19 20 19 21 21 22 24 23 23 22 23 22 23 25 25 25 23 22 19 16 11
18 19 19 18 18 18 15 12 14 13 15 12 11 13 14 17 19 17 19 24 24 22 21 23 23 24 24 24 23 24 24 25 25 27 25 25 24 23 22 22 19 15 7
20 18 16 15 15 16 15 13 8 10 12 13 13 13 13 14 15 16 17 20 24 25 22 21 21 22 23 25 26 28 25 27 29 28 26 24 23 23 23 24 18 14 9
18 16 15 14 14 14 13 12 11 10 15 18 16 15 15 14 16 17 16 21 23 21 20 20 20 22 23 25 25 24 25 28 29 27 26 25 25 23 22 21 17 14 9
12 10 11 12 12 12 12 11 12 14 15 19 19 19 17 17 20 22 24 26 27 24 20 23 23 23 23 25 26 27 29 30 30 29 27 26 25 24 23 19 16 13 10
9 8 8 10 11 11 10 12 13 14 15 18 21 21 20 19 22 24 27 28 23 23 22 23 25 22 24 25 25 27 28 29 30 30 28 27 26 25 24 21 20 17 9
6 8 8 10 11 10 11 13 14 15 16 17 19 21 21 22 26 26 27 28 26 22 24 23 26 23 25 26 28 30 31 31 31 30 30 29 27 25 23 24 23 16 5
14 14 11 14 12 12 13 13 14 15 16 17 16 16 17 21 23 24 25 26 25 25 24 25 24 24 27 28 31 31 31 31 31 32 31 31 30 28 27 24 21 10 6
15 16 18 16 14 14 14 13 13 14 15 17 16 17 17 20 22 23 24 24 24 23 23 24 24 25 26 30 31 32 32 33 36 35 34 33 30 28 27 24 20 12 5
17 17 17 15 15 14 13 12 13 14 14 15 16 17 19 21 21 23 23 23 24 24 25 26 26 27 30 30 32 33 33 37 38 36 35 33 31 30 26 23 21 14 11
16 17 16 14 13 12 12 12 12 12 12 14 15 17 18 19 20 22 23 24 25 25 26 28 28 27 30 33 34 36 36 36 35 35 33 31 29 30 26 25 22 16 13
15 15 14 12 11 11 11 11 11 11 11 12 14 16 16 18 20 22 24 25 26 27 28 29 29 28 31 31 34 36 37 36 35 36 36 34 31 30 29 25 26 17 14
14 14 13 12 12 11 11 11 10 10 11 12 13 15 16 18 20 21 23 24 26 27 29 30 30 29 30 33 34 35 37 38 37 36 38 38 36 35 34 29 29 24 21
Wind_Direction
164 162 157 155 160 168 158 146 140 137 137 125 91 42 17 5 360 6 10 3 357 348 343 343 341 347 355 344 338 343 343 348 321 311 319 323 323 328 331 337 337 343 341
145 152 150 154 157 150 140 135 136 124 112 85 47 23 9 15 17 17 9 0 354 347 346 342 350 349 345 345 335 335 336 333 315 305 310 315 316 322 322 327 331 334 336
129 123 127 132 136 132 130 126 120 108 86 52 29 25 25 40 21 16 3 355 354 346 344 339 337 342 336 329 333 332 329 320 316 297 300 305 307 318 319 315 320 324 328
126 127 126 127 129 130 127 115 102 77 54 42 41 54 45 23 15 11 352 351 350 352 351 351 349 334 325 334 336 326 320 314 310 300 299 301 304 308 305 304 312 319 318
131 134 134 132 126 120 113 100 82 60 56 57 42 36 32 12 3 1 348 357 349 348 354 356 332 320 327 334 335 323 316 312 304 302 300 301 300 306 307 307 299 312 313
120 113 121 125 122 112 104 89 73 72 62 51 64 61 29 19 349 354 349 346 348 350 348 336 334 331 333 315 314 319 318 303 302 301 297 296 301 307 305 304 304 307 315
121 126 123 112 103 95 85 79 75 74 77 72 63 40 17 36 2 356 348 346 348 344 333 337 342 341 341 324 324 328 331 333 314 305 296 302 303 307 304 300 300 292 288
95 98 105 112 99 88 86 83 82 77 68 54 41 17 44 56 8 4 348 341 331 329 329 333 329 327 327 330 329 331 337 343 335 319 310 308 307 308 303 294 289 290 290
91 98 97 92 89 84 77 75 70 64 56 61 73 67 65 39 4 352 345 340 339 340 340 338 324 318 325 333 333 336 338 335 341 332 333 326 326 319 314 306 290 281 286
95 101 93 92 88 85 82 84 81 82 92 83 78 62 34 6 352 358 347 341 338 334 338 336 339 333 337 341 339 341 333 331 336 333 334 331 329 328 325 311 292 270 271
108 101 98 94 97 97 94 87 79 82 78 62 49 29 18 14 4 359 8 352 333 321 331 341 350 349 343 344 347 351 337 333 332 328 329 331 327 325 324 327 314 284 266
108 104 101 106 104 96 89 84 81 72 65 52 46 43 36 26 17 14 17 19 5 350 348 351 350 347 348 353 356 354 352 343 333 331 333 327 327 327 326 325 319 310 293
100 99 100 107 107 95 87 84 78 68 59 47 38 28 25 25 22 19 15 9 8 5 1 351 350 357 2 4 3 360 353 342 338 336 330 324 325 322 330 334 335 331 309
104 101 100 104 103 90 87 81 75 67 55 44 33 23 21 18 19 18 21 20 15 8 7 14 8 10 7 360 358 353 350 344 340 334 326 323 325 327 327 333 321 321 310
110 105 103 105 103 91 86 93 78 69 54 44 30 29 18 13 11 15 17 24 23 22 22 22 13 7 3 356 351 351 345 347 347 340 332 328 326 325 323 329 326 315 284
110 104 102 100 97 101 96 101 86 70 61 47 41 30 24 19 13 17 22 27 27 27 24 15 8 4 1 350 350 344 345 349 344 336 332 329 324 323 322 324 324 317 281
108 104 100 97 93 93 93 95 93 81 54 44 38 33 26 22 25 24 26 34 33 23 20 10 4 0 353 350 347 342 341 343 338 334 331 329 326 323 321 319 322 320 279
108 105 103 104 104 103 93 78 59 45 44 33 33 30 31 39 42 40 36 36 23 20 17 8 1 358 356 351 347 344 345 342 340 337 334 332 328 324 321 320 314 307 307
108 103 120 121 103 90 80 68 69 64 52 41 30 34 33 42 45 43 41 33 18 14 10 7 2 358 356 350 348 349 346 339 336 335 334 333 330 329 324 324 322 318 272
141 135 127 136 110 84 84 79 69 60 52 44 38 30 29 36 35 32 34 28 21 14 10 8 3 2 358 354 354 353 346 343 341 340 337 335 334 333 326 326 334 338 45
113 116 115 121 106 89 90 84 70 61 52 45 41 37 37 40 35 31 28 24 19 15 9 8 2 7 2 0 358 352 347 343 342 340 338 338 339 335 337 335 335 2 53
120 114 115 107 104 98 95 85 73 66 55 48 43 42 42 42 37 33 30 25 21 19 17 8 5 11 5 4 358 353 348 346 344 343 340 341 341 342 343 346 350 14 36
123 119 118 111 107 105 96 85 75 67 62 53 47 45 43 40 36 33 30 28 26 24 22 16 11 14 9 7 5 0 353 349 348 349 346 345 344 346 349 350 352 9 30
130 128 124 114 106 103 98 90 79 68 69 59 51 47 45 41 38 37 34 32 29 26 25 22 15 17 11 8 7 9 5 6 7 6 8 356 351 357 2 4 4 26 45
132 131 124 115 108 104 102 95 85 73 67 59 54 48 45 43 40 36 36 33 31 27 25 24 20 16 11 10 5 13 16 19 21 22 21 15 9 11 11 9 14 21 37
133 131 124 118 113 108 103 99 88 75 64 58 54 49 44 42 38 35 32 30 28 27 25 24 20 19 12 15 9 9 18 22 24 28 27 23 19 19 15 15 19 20 20